This demonstration page uses our WeatherBlox Daily Observations layout. Learn more.

Left ArrowRight Arrow

Hourly Observations for November 29, 2020

Temp ( °F °C ) Dew Point ( °F °C ) Humidity (%) Winds ( mph kmh ) Pressure ( in mb ) Visibility ( mi km ) Precip ( " mm )
12:52 am 00:52 Clear 32 0 28 -2.2 85 85 SSE 8 13 30.00 1016 10 16 0.00 0.00
1:52 am 01:52 Clear 36 2.2 30 -1.1 79 79 Calm 29.97 1015 10 16 0.00 0.00
2:52 am 02:52 Mostly Clear 36 2.2 29 -1.7 76 76 Calm 30.00 1016 10 16 0.00 0.00
3:52 am 03:52 Mostly Clear 32 0 27 -2.8 82 82 NW 6 9 30.02 1017 10 16 0.00 0.00
4:52 am 04:52 Mostly Clear 32 0 28 -2.2 85 85 N 9 15 30.05 1018 10 16 0.00 0.00
5:52 am 05:52 Partly Cloudy 35 1.7 27 -2.8 72 72 N 17 28 30.09 1019 10 16 0.00 0.00
6:52 am 06:52 Mostly Clear 33 0.6 27 -2.8 78 78 N 14 22 30.15 1021 10 16 0.00 0.00
7:52 am 07:52 Mostly Sunny 33 0.6 27 -2.8 78 78 N 14 22 30.20 1023 10 16 0.00 0.00
8:52 am 08:52 Partly Cloudy 36 2.2 27 -2.8 70 70 NNW 26 43 30.24 1024 10 16 0.00 0.00
9:52 am 09:52 Mostly Cloudy 37 2.8 27 -2.8 67 67 NNW 28 44 30.27 1025 10 16 0.00 0.00
10:52 am 10:52 Mostly Cloudy 38 3.3 25 -3.9 60 60 N 24 39 30.29 1026 10 16 0.00 0.00
11:52 am 11:52 Mostly Cloudy 40 4.4 21 -6.1 47 47 N 32 52 30.27 1025 10 16 0.00 0.00
12:52 pm 12:52 Mostly Cloudy 39 3.9 20 -6.7 46 46 N 30 48 30.29 1026 10 16 0.00 0.00
1:52 pm 13:52 Mostly Cloudy 39 3.9 20 -6.7 46 46 NNW 28 44 30.29 1026 10 16 0.00 0.00
2:52 pm 14:52 Partly Cloudy 39 3.9 20 -6.7 46 46 NNW 25 41 30.29 1026 10 16 0.00 0.00
3:52 pm 15:52 Mostly Sunny 38 3.3 20 -6.7 48 48 NNW 20 31 30.31 1027 10 16 0.00 0.00
4:52 pm 16:52 Mostly Sunny 35 1.7 18 -7.8 50 50 NNW 22 35 30.33 1027 10 16 0.00 0.00
5:52 pm 17:52 Clear 33 0.6 17 -8.3 52 52 NNW 14 22 30.36 1028 10 16 0.00 0.00
6:52 pm 18:52 Clear 32 0 16 -8.9 52 52 NNW 14 22 30.37 1029 10 16 0.00 0.00
7:52 pm 19:52 Clear 31 -0.6 16 -8.9 54 54 NNW 15 24 30.39 1029 10 16 0.00 0.00
8:52 pm 20:52 Clear 30 -1.1 16 -8.9 56 56 NNW 13 20 30.40 1030 10 16 0.00 0.00
9:52 pm 21:52 Clear 26 -3.3 17 -8.3 69 69 NNE 7 11 30.40 1030 10 16 0.00 0.00
10:52 pm 22:52 Clear 25 -3.9 17 -8.3 72 72 N 10 17 30.40 1029 10 16 0.00 0.00
11:52 pm 23:52 Clear 25 -3.9 16 -8.9 69 69 NNW 12 19 30.40 1030 10 16 0.00 0.00

Powered by AerisWeather